STARLINK-33965

Last updated on Fri Aug 08 2025 00:02:04 GMT+0000 (Coordinated Universal Time)

1 64755U 25147A 25218.26737278 .00024133 00000+0 61099-3 0 9996 2 64755 53.1606 166.6396 0001236 86.7595 273.3551 15.39640311 5766
UTC large
Height (km)
Speed (km/s)
/
Latitude / Longitude
Inclination (degrees)
Orbital Period (minutes)
Azimuth
Elevation
Range (km)
Doppler Factor

Next 0 passes for location: London (51.5072 / 0.1276)

Sorry there are no passes over London.